Find Starlink 2418

NORAD ID: 48097 Int'l Des: 2021-027 Owner: SPXS Country: US Constellation: starlink operational
LEOCIRCULARSTARLINK_TYPE

当前视图

正在加载3D地球...

About Starlink 2418

Starlink 2418 (NORAD 48097) is a starlink constellation satellite (v1.0) launched Apr 7, 2021 by SPXS of US. It operates in LEO, CIRCULAR, STARLINK_TYPE orbit with a mass of 260.00 kg.

即将过境

Passes for default location (London). Set your location on the main map for personalized predictions.

高度历史

Loading altitude history...

两行轨道根数

1 48097U 21027F 26263.45982666 .00028408 00000-0 89253-3 0 9997
2 48097 53.1589 326.4240 0002609 36.7109 323.4072 15.32799606302526
Epoch: Sep 20, 2026 • Age: 24 hours

当前状态

高度 466.8 km
远地点 / 近地点 N/A
速度 7.64 km/s
星下点 27.22°N, 175.85°W
发射日期 Apr 7, 2021
运行时间 5.4 years
类型 internet

技术详情

分类 Payload
质量 260.00 kg
干质量 248.00 kg
长度 0.20 m
跨度 9.00 m
形状 ? Box + pan
制造商 SPXS
平台类型 Starlink
阶段状态 In Orbit
所有者/国家 SPXS/US

Most Searched